Sie sind hier: Start › Wetter Rostock

Wetter Rostock

Auf dieser Seite finden Sie aktuelle Wetterdaten der Hansestadt Rostock:

Letzte Wetterbeobachtung

Messzeitpunkt: 24. Juni 2024 - 23:00 Uhr
Temperatur: 17 °C
Luftdruck: 1021 hPa
Luftfeuchte: 75 %
Wind: 1 m/s, Ost
Wolken: Sonnig
Bedingungen:
Sonne: 04:39 Uhr 21:48 Uhr

Die letzten 24 Messungen

Temperatur: Temperatur   Luftdruck: Luftdruck   Luftfeuchte: Luftfeuchte

Uhrzeit Temperatur Luftdruck Luftfeuchte Wind
24.06. 00:00 h 16 °C 1019 hPa 84 % 2 m/s, SW
24.06. 01:00 h 17 °C 1020 hPa 82 % 5 m/s, W
24.06. 02:00 h 17 °C 1020 hPa 84 % 5 m/s, W
24.06. 03:00 h 17 °C 1020 hPa 83 % 5 m/s, NW
24.06. 04:00 h 16 °C 1020 hPa 87 % 4 m/s, W
24.06. 05:00 h 15 °C 1020 hPa 91 % 2 m/s, W
24.06. 06:00 h 15 °C 1020 hPa 87 % 1 m/s, SW
24.06. 07:00 h 16 °C 1020 hPa 82 % 6 m/s, NW
24.06. 08:00 h 17 °C 1021 hPa 79 % 4 m/s, NW
24.06. 09:00 h 17 °C 1021 hPa 78 % 4 m/s, NW
24.06. 10:00 h 18 °C 1021 hPa 75 % 4 m/s, NW
24.06. 11:00 h 18 °C 1022 hPa 73 % 5 m/s, NW
24.06. 12:00 h 18 °C 1022 hPa 69 % 4 m/s, NW
24.06. 13:00 h 18 °C 1022 hPa 71 % 4 m/s, NW
24.06. 14:00 h 19 °C 1022 hPa 69 % 4 m/s, NW
24.06. 15:00 h 18 °C 1022 hPa 68 % 4 m/s, NW
24.06. 16:00 h 18 °C 1021 hPa 70 % 3 m/s, NW
24.06. 17:00 h 19 °C 1021 hPa 65 % 2 m/s, N
24.06. 18:00 h 19 °C 1021 hPa 64 % 2 m/s, N
24.06. 19:00 h 19 °C 1021 hPa 65 % 2 m/s, N
24.06. 20:00 h 19 °C 1021 hPa 66 % 1 m/s, NO
24.06. 21:00 h 18 °C 1021 hPa 71 % 1 m/s, NO
24.06. 22:00 h 18 °C 1021 hPa 72 % 1 m/s, NO
24.06. 23:00 h 17 °C 1021 hPa 75 % 1 m/s, O

zu den archivierten Daten »

Bauernregel für heute

Wenn im Juni der Nordwind weht, das Korn zur Ernte trefflich steht.

Typ: Monatsregel

Hinweis: Bitte beachten Sie die Anmerkungen zum Thema Wetter im Impressum!

Update: 24. Juni - 23:27 h


Downloads | Rostock Links | Rostock Quiz | Rostock Webcam | Skyline Rostock
Datenschutz | Impressum | News | Verlinken